sat.trackr.live / text

‹ back to catalog

KUIPER-00297

NORAD 68596 · 2026-072Z

PAYLOAD ACTIVE UNKNOWN

§ Identity

Operator
Country
US
Launch date
2026-04-04
Launch site
AFETR
Launch vehicle
Mass (kg)
RCS (m²)

External: N2YO · Heavens-Above · Gunter

§ Orbital elements

Epoch: 2026-05-25T04:00:03.998880Z

Period
95.22 min
Inclination
51.8785°
Eccentricity
0.0009036
Mean motion
15.12217021 rev/d
Perigee alt
523.2 km
Apogee alt
535.7 km
Semi-major
6,907.6 km
B*
2.4404e-5
RAAN
290.1599°
Arg perigee
308.2922°
Mean anomaly
37.8981°
Rev number
445

§ Raw data

KUIPER-002971 68596U 26072Z   26145.16671295  .00000125  00000+0  24404-4 0  99912 68596  51.8785 290.1599 0009036 308.2922  37.8981 15.12217021  4450

JSON: /api/v1/satellites/68596 · /tle

For live sub-satellite position, see the globe view (requires WebGL).

§ Visibility from observer

Set your observer location to see the next 7 days of passes ≥ 10°. The values pass through the URL so the page stays shareable.

No JS? Fill the form by hand. The geolocation button needs JavaScript.